Claxton, GA

9:34 PM EST on February 07, 2016 (GMT -0500)
Claxton-Evans County

Weather History for KCWV - February, 2014

Change the Weather History Date:

Wednesday, February 5, 2014

  Actual Average (KSAV) Record (KSAV)
Temperature  
Mean Temperature 62 °F 51 °F  
Max Temperature 78 °F 62 °F 82 °F (2008)
Min Temperature 46 °F 40 °F 15 °F (1917)
Degree Days  
Heating Degree Days 3 14  
Month to date heating degree days 70  
Since 1 July heating degree days 1244  
Cooling Degree Days 0 0  
Month to date cooling degree days 0  
Year to date cooling degree days 3  
Growing Degree Days 12 (Base 50)    
Moisture  
Dew Point 53 °F    
Average Humidity 68    
Maximum Humidity 100    
Minimum Humidity 39    
Precipitation  
Precipitation 0.00 in 0.11 in 2.36 in (1960)
Month to date precipitation 0.54  
Year to date precipitation 4.23  
Sea Level Pressure  
Sea Level Pressure 30.00 in    
Wind  
Wind Speed 4 mph (West)    
Max Wind Speed 15 mph    
Max Gust Speed 21 mph    
Visibility 7 miles    
Events Fog , Rain    
T = Trace of Precipitation, MM = Missing Value Source: NWS Daily Summary

Daily Weather History Graph

Daily Weather History Graph

Search for Another Location

Airport or City:

Trip Planner

Search our weather history database for the weather conditions in past years. The results will help you decide how hot, cold, wet, or windy it might be!

Date:

Astronomy

Feb. 05, 2014 Rise Set
Actual Time 7:18 AM EST 6:04 PM EST
Civil Twilight 6:53 AM EST 6:30 PM EST
Nautical Twilight 6:23 AM EST 6:59 PM EST
Astronomical Twilight 5:55 AM EST 7:28 PM EST
Moon 10:57 AM EST (2/5) No Moon Set
Length of Visible Light 11h 37m
Length of Day
10h 46m
Waxing Crescent, 39% of the Moon is Illuminated
Feb 5
Waxing Crescent
Feb 6
First Quarter
Feb 14
Full
Feb 22
Last Quarter
Mar 1
New

Hourly Weather History & Observations

Time (EST) Temp. Windchill Dew Point Humidity Pressure Visibility Wind Dir Wind Speed Gust Speed Precip Events Conditions
12:15 AM - - - N/A% 30.06 in 1.5 mi Calm Calm - N/A Rain Light Rain
12:35 AM - - - N/A% 30.05 in 1.5 mi Calm Calm - N/A   Overcast
12:55 AM - - - N/A% 30.05 in 1.5 mi Calm Calm - N/A   Overcast
1:15 AM - - - N/A% 30.05 in 1.5 mi Calm Calm - N/A Rain Light Rain
1:35 AM - - - N/A% 30.04 in 1.0 mi Calm Calm - N/A   Overcast
1:55 AM - - - N/A% 30.06 in 1.0 mi Calm Calm - N/A   Overcast
2:15 AM - - - N/A% 30.04 in 2.0 mi Calm Calm - N/A   Overcast
2:35 AM - - - N/A% 30.03 in 0.8 mi Calm Calm - N/A   Overcast
2:55 AM - - - N/A% 30.01 in 1.0 mi Calm Calm - N/A   Overcast
3:15 AM - - - N/A% 30.01 in 0.8 mi Calm Calm - N/A   Overcast
3:35 AM - - - N/A% 30.01 in 0.5 mi Calm Calm - N/A Fog Fog
3:55 AM - - - N/A% 30.00 in 0.5 mi Calm Calm - N/A Fog Fog
4:15 AM - - - N/A% 29.99 in 0.5 mi Calm Calm - N/A Fog Fog
4:35 AM - - - N/A% 29.99 in 0.5 mi Calm Calm - N/A Fog Fog
4:55 AM - - - N/A% 29.99 in 1.0 mi Calm Calm - N/A   Overcast
5:15 AM - - - N/A% 29.99 in 1.2 mi Calm Calm - N/A   Overcast
5:35 AM - - - N/A% 29.98 in 1.8 mi Calm Calm - N/A   Overcast
5:55 AM 55.4 °F - 55.4 °F 100% 29.97 in 2.0 mi Calm Calm - N/A   Overcast
6:15 AM 55.4 °F - 55.4 °F 100% 29.97 in 2.0 mi South 3.5 mph - N/A   Overcast
6:35 AM 57.2 °F - 57.2 °F 100% 29.97 in 3.0 mi Calm Calm - N/A   Overcast
6:55 AM 59.0 °F - 59.0 °F 100% 29.97 in 2.0 mi SW 3.5 mph - N/A   Overcast
7:15 AM 59.0 °F - 59.0 °F 100% 29.97 in 1.5 mi Calm Calm - N/A   Overcast
7:35 AM 60.8 °F - 60.8 °F 100% 29.97 in 3.0 mi South 5.8 mph - N/A   Overcast
7:55 AM 62.6 °F - 62.6 °F 100% 29.97 in 5.0 mi SSW 3.5 mph - N/A   Overcast
8:15 AM 62.6 °F - 62.6 °F 100% 29.97 in 5.0 mi SSW 5.8 mph - N/A   Overcast
8:35 AM 62.6 °F - 62.6 °F 100% 29.98 in 4.0 mi SSW 6.9 mph - N/A Rain Light Rain
8:55 AM - - - N/A% 29.97 in 7.0 mi SSW 3.5 mph - N/A   Overcast
9:15 AM - - - N/A% 29.97 in 7.0 mi SSW 6.9 mph - N/A   Overcast
9:35 AM - - - N/A% 29.97 in 10.0 mi SSW 6.9 mph - N/A   Overcast
9:55 AM - - - N/A% 29.97 in 10.0 mi SSW 6.9 mph - N/A   Overcast
10:15 AM - - - N/A% 29.99 in 10.0 mi West 12.7 mph 18.4 mph N/A Rain Rain
10:35 AM - - - N/A% 29.98 in 5.0 mi SW 3.5 mph - N/A Rain Light Rain
10:55 AM - - - N/A% 29.97 in 10.0 mi Calm Calm - N/A   Overcast
11:15 AM - - - N/A% 29.97 in 10.0 mi WSW 5.8 mph - N/A   Mostly Cloudy
11:35 AM 69.8 °F - 69.8 °F 100% 29.97 in 10.0 mi West 8.1 mph - N/A   Overcast
11:55 AM 71.6 °F - 69.8 °F 94% 29.95 in 10.0 mi West 9.2 mph 16.1 mph N/A   Scattered Clouds
12:15 PM 73.4 °F - 69.8 °F 88% 29.94 in 10.0 mi WSW 3.5 mph - N/A   Scattered Clouds
12:35 PM 77.0 °F - 68.0 °F 74% 29.94 in 10.0 mi West 9.2 mph - N/A   Scattered Clouds
12:55 PM 77.0 °F - 64.4 °F 65% 29.93 in 10.0 mi West 12.7 mph 19.6 mph N/A   Clear
1:15 PM 75.2 °F - 64.4 °F 69% 29.92 in 10.0 mi West 5.8 mph - N/A   Scattered Clouds
1:35 PM 77.0 °F - 64.4 °F 65% 29.92 in 10.0 mi West 13.8 mph 18.4 mph N/A   Scattered Clouds
1:55 PM 77.0 °F - 62.6 °F 61% 29.91 in 10.0 mi SW 10.4 mph 16.1 mph N/A   Scattered Clouds
2:15 PM 78.8 °F - 62.6 °F 57% 29.92 in 10.0 mi WSW 10.4 mph 17.3 mph N/A   Scattered Clouds
2:35 PM 78.8 °F - 59.0 °F 51% 29.92 in 10.0 mi West 13.8 mph 19.6 mph N/A   Clear
2:55 PM 78.8 °F - 59.0 °F 51% 29.91 in 10.0 mi West 9.2 mph 19.6 mph N/A   Scattered Clouds
3:15 PM 78.8 °F - 53.6 °F 42% 29.91 in 10.0 mi West 4.6 mph 16.1 mph N/A   Mostly Cloudy
3:35 PM 78.8 °F - 51.8 °F 39% 29.92 in 10.0 mi West 8.1 mph - N/A   Scattered Clouds
3:55 PM 77.0 °F - 51.8 °F 41% 29.92 in 10.0 mi West 11.5 mph - N/A   Clear
4:15 PM 77.0 °F - 51.8 °F 41% 29.92 in 10.0 mi West 8.1 mph - N/A   Clear
4:35 PM 77.0 °F - 51.8 °F 41% 29.92 in 10.0 mi West 12.7 mph 16.1 mph N/A   Clear
4:55 PM 73.4 °F - 48.2 °F 41% 29.94 in 10.0 mi West 15.0 mph 20.7 mph N/A   Clear
5:15 PM 71.6 °F - 48.2 °F 43% 29.95 in 10.0 mi West 8.1 mph - N/A   Clear
5:35 PM 71.6 °F - 50.0 °F 46% 29.96 in 10.0 mi West 5.8 mph - N/A   Clear
5:55 PM 69.8 °F - 48.2 °F 46% 29.97 in 10.0 mi West 9.2 mph - N/A   Clear
6:15 PM 68.0 °F - 50.0 °F 52% 29.98 in 10.0 mi WNW 10.4 mph - N/A   Clear
6:35 PM 68.0 °F - 50.0 °F 52% 29.99 in 10.0 mi WNW 8.1 mph - N/A   Clear
6:55 PM 64.4 °F - 50.0 °F 59% 29.99 in 10.0 mi WNW 5.8 mph - N/A   Clear
7:15 PM 62.6 °F - 50.0 °F 63% 30.01 in 10.0 mi WNW 8.1 mph - N/A   Clear
7:35 PM 62.6 °F - 50.0 °F 63% 30.01 in 10.0 mi WNW 5.8 mph - N/A   Clear
7:55 PM 62.6 °F - 48.2 °F 59% 30.02 in 10.0 mi NW 10.4 mph - N/A   Clear
8:15 PM 60.8 °F - 46.4 °F 59% 30.03 in 10.0 mi NW 10.4 mph 16.1 mph N/A   Clear
8:35 PM 60.8 °F - 44.6 °F 55% 30.05 in 10.0 mi WNW 15.0 mph 20.7 mph N/A   Clear
8:55 PM 59.0 °F - 44.6 °F 59% 30.06 in 10.0 mi WNW 12.7 mph 18.4 mph N/A   Clear
9:15 PM 55.4 °F - 44.6 °F 67% 30.08 in 10.0 mi WNW 9.2 mph - N/A   Clear
9:35 PM 55.4 °F - 44.6 °F 67% 30.08 in 10.0 mi NW 11.5 mph 17.3 mph N/A   Clear
9:55 PM 51.8 °F - 42.8 °F 71% 30.09 in 10.0 mi NW 11.5 mph 18.4 mph N/A   Clear
10:15 PM 51.8 °F - 42.8 °F 71% 30.10 in 10.0 mi WNW 11.5 mph 16.1 mph N/A   Clear
10:35 PM 50.0 °F - 41.0 °F 71% 30.11 in 10.0 mi WNW 15.0 mph - N/A   Clear
10:55 PM 50.0 °F - 41.0 °F 71% 30.12 in 10.0 mi WNW 11.5 mph 18.4 mph N/A   Clear
11:15 PM 48.2 °F - 39.2 °F 71% 30.13 in 10.0 mi WNW 10.4 mph - N/A   Clear
11:35 PM 46.4 °F 41.1 °F 39.2 °F 76% 30.14 in 10.0 mi WNW 11.5 mph 18.4 mph N/A   Clear
11:55 PM 46.4 °F 41.5 °F 37.4 °F 71% 30.15 in 10.0 mi NW 10.4 mph - N/A   Clear